Time,TemperatureF,DewpointF,PressureIn,WindDirection,WindDirectionDegrees,WindSpeedMPH,WindSpeedGustMPH,Humidity,HourlyPrecipIn,Conditions,Clouds,dailyrainin,SolarRadiationWatts/m^2,SoftwareType,DateUTC
2013-10-11 00:03:00,72.0,60.0,-100.00,SE,138,6.0,13.0,65,0.00,,,0.00,1.000000,,2013-10-11 05:03:00,
2013-10-11 00:43:00,72.0,60.0,-100.00,SSE,150,8.0,16.0,67,0.00,,,0.00,1.000000,,2013-10-11 05:43:00,
2013-10-11 00:52:00,72.0,60.0,-100.00,SSE,150,8.0,16.0,67,0.00,,,0.00,1.000000,,2013-10-11 05:52:00,
2013-10-11 01:02:00,72.0,60.0,-100.00,SSE,150,8.0,16.0,67,0.00,,,0.00,1.000000,,2013-10-11 06:02:00,
2013-10-11 01:43:00,71.0,60.0,-100.00,SSE,152,12.0,20.0,69,0.00,,,0.00,0.000000,,2013-10-11 06:43:00,
2013-10-11 01:52:00,71.0,60.0,-100.00,SSE,152,12.0,20.0,69,0.00,,,0.00,0.000000,,2013-10-11 06:52:00,
2013-10-11 02:02:00,71.0,60.0,-100.00,SSE,152,12.0,20.0,69,0.00,,,0.00,0.000000,,2013-10-11 07:02:00,
2013-10-11 02:42:00,71.0,62.0,-100.00,SSE,159,13.0,21.0,74,0.00,,,0.00,1.000000,,2013-10-11 07:42:00,
2013-10-11 02:52:00,71.0,62.0,-100.00,SSE,159,13.0,21.0,74,0.00,,,0.00,1.000000,,2013-10-11 07:52:00,
2013-10-11 03:02:00,71.0,62.0,-100.00,SSE,159,13.0,21.0,74,0.00,,,0.00,1.000000,,2013-10-11 08:02:00,
2013-10-11 03:42:00,70.0,62.0,-100.00,SSE,165,10.0,22.0,77,0.00,,,0.00,1.000000,,2013-10-11 08:42:00,
2013-10-11 03:52:00,70.0,62.0,-100.00,SSE,165,10.0,22.0,77,0.00,,,0.00,1.000000,,2013-10-11 08:52:00,
2013-10-11 04:01:00,70.0,62.0,-100.00,SSE,165,10.0,22.0,77,0.00,,,0.00,1.000000,,2013-10-11 09:01:00,
2013-10-11 04:43:00,70.0,63.0,-100.00,SSE,163,9.0,16.0,79,0.00,,,0.00,0.000000,,2013-10-11 09:43:00,
2013-10-11 04:54:00,70.0,63.0,-100.00,SSE,163,9.0,16.0,79,0.00,,,0.00,0.000000,,2013-10-11 09:54:00,
2013-10-11 05:03:00,70.0,63.0,-100.00,SSE,163,9.0,16.0,79,0.00,,,0.00,0.000000,,2013-10-11 10:03:00,
2013-10-11 05:43:00,70.0,64.0,-100.00,SSE,160,9.0,14.0,81,0.00,,,0.00,0.000000,,2013-10-11 10:43:00,
2013-10-11 05:53:00,70.0,64.0,-100.00,SSE,160,9.0,14.0,81,0.00,,,0.00,0.000000,,2013-10-11 10:53:00,
2013-10-11 06:02:00,70.0,64.0,-100.00,SSE,160,9.0,14.0,81,0.00,,,0.00,0.000000,,2013-10-11 11:02:00,
2013-10-11 06:42:00,70.0,64.0,-100.00,SSE,159,8.0,15.0,81,0.00,,,-99.99,0.000000,,2013-10-11 11:42:00,
2013-10-11 06:52:00,70.0,64.0,-100.00,SSE,159,8.0,15.0,81,0.00,,,-99.99,0.000000,,2013-10-11 11:52:00,
2013-10-11 07:02:00,70.0,64.0,-100.00,SSE,159,8.0,15.0,81,0.00,,,-99.99,0.000000,,2013-10-11 12:02:00,
2013-10-11 07:42:00,68.0,62.0,-100.00,SSE,156,9.0,15.0,82,0.00,,,-99.99,0.000000,,2013-10-11 12:42:00,
2013-10-11 07:52:00,68.0,62.0,-100.00,SSE,156,9.0,15.0,82,0.00,,,-99.99,0.000000,,2013-10-11 12:52:00,
2013-10-11 08:02:00,68.0,62.0,-100.00,SSE,156,9.0,15.0,82,0.00,,,-99.99,0.000000,,2013-10-11 13:02:00,
2013-10-11 08:43:00,69.0,64.0,-100.00,SE,145,5.0,16.0,84,0.00,,,-99.99,4.000000,,2013-10-11 13:43:00,
2013-10-11 08:53:00,69.0,64.0,-100.00,SE,145,5.0,16.0,84,0.00,,,-99.99,4.000000,,2013-10-11 13:53:00,
2013-10-11 09:02:00,69.0,64.0,-100.00,SE,145,5.0,16.0,84,0.00,,,-99.99,4.000000,,2013-10-11 14:02:00,
2013-10-11 09:42:00,70.0,64.0,-100.00,SSE,157,5.0,9.0,82,0.00,,,0.00,33.000000,,2013-10-11 14:42:00,
2013-10-11 09:52:00,70.0,64.0,-100.00,SSE,157,5.0,9.0,82,0.00,,,0.00,33.000000,,2013-10-11 14:52:00,
2013-10-11 10:02:00,70.0,64.0,-100.00,SSE,157,5.0,9.0,82,0.00,,,0.00,33.000000,,2013-10-11 15:02:00,
2013-10-11 10:44:00,74.0,66.0,-100.00,SSE,156,9.0,15.0,77,0.00,,,0.00,233.000000,,2013-10-11 15:44:00,
2013-10-11 10:54:00,74.0,66.0,-100.00,SSE,156,9.0,15.0,77,0.00,,,0.00,233.000000,,2013-10-11 15:54:00,
2013-10-11 11:04:00,74.0,66.0,-100.00,SSE,156,9.0,15.0,77,0.00,,,0.00,233.000000,,2013-10-11 16:04:00,
2013-10-11 11:43:00,77.0,68.0,-100.00,SSE,160,11.0,19.0,73,0.00,,,0.00,451.000000,,2013-10-11 16:43:00,
2013-10-11 11:53:00,77.0,68.0,-100.00,SSE,160,11.0,19.0,73,0.00,,,0.00,451.000000,,2013-10-11 16:53:00,
2013-10-11 12:03:00,77.0,68.0,-100.00,SSE,160,11.0,19.0,73,0.00,,,0.00,451.000000,,2013-10-11 17:03:00,
2013-10-11 12:43:00,81.0,69.0,-100.00,SSE,167,10.0,17.0,67,0.00,,,0.00,613.000000,,2013-10-11 17:43:00,
2013-10-11 12:53:00,81.0,69.0,-100.00,SSE,167,10.0,17.0,67,0.00,,,0.00,613.000000,,2013-10-11 17:53:00,
2013-10-11 13:02:00,81.0,69.0,-100.00,SSE,167,10.0,17.0,67,0.00,,,0.00,613.000000,,2013-10-11 18:02:00,
2013-10-11 13:43:00,84.0,69.0,-100.00,South,191,9.0,17.0,61,0.00,,,0.00,634.000000,,2013-10-11 18:43:00,
2013-10-11 13:53:00,84.0,69.0,-100.00,South,191,9.0,17.0,61,0.00,,,0.00,634.000000,,2013-10-11 18:53:00,
2013-10-11 14:02:00,84.0,69.0,-100.00,South,191,9.0,17.0,61,0.00,,,0.00,634.000000,,2013-10-11 19:02:00,
2013-10-11 14:43:00,84.0,67.0,-100.00,SSW,203,10.0,19.0,56,0.00,,,0.00,688.000000,,2013-10-11 19:43:00,
2013-10-11 14:52:00,84.0,67.0,-100.00,SSW,203,10.0,19.0,56,0.00,,,0.00,688.000000,,2013-10-11 19:52:00,
2013-10-11 15:02:00,84.0,67.0,-100.00,SSW,203,10.0,19.0,56,0.00,,,0.00,688.000000,,2013-10-11 20:02:00,
2013-10-11 15:43:00,85.0,67.0,-100.00,South,176,8.0,16.0,55,0.00,,,0.00,437.000000,,2013-10-11 20:43:00,
2013-10-11 15:53:00,85.0,67.0,-100.00,South,176,8.0,16.0,55,0.00,,,0.00,437.000000,,2013-10-11 20:53:00,
2013-10-11 16:02:00,85.0,67.0,-100.00,South,176,8.0,16.0,55,0.00,,,0.00,437.000000,,2013-10-11 21:02:00,
2013-10-11 16:43:00,85.0,66.0,-100.00,SSE,167,8.0,16.0,54,0.00,,,0.00,404.000000,,2013-10-11 21:43:00,
2013-10-11 16:55:00,85.0,66.0,-100.00,SSE,167,8.0,16.0,54,0.00,,,0.00,404.000000,,2013-10-11 21:55:00,
2013-10-11 17:04:00,85.0,66.0,-100.00,SSE,167,8.0,16.0,54,0.00,,,0.00,404.000000,,2013-10-11 22:04:00,
2013-10-11 17:43:00,84.0,67.0,-100.00,SSE,160,9.0,15.0,56,0.00,,,0.00,209.000000,,2013-10-11 22:43:00,
2013-10-11 17:54:00,84.0,67.0,-100.00,SSE,160,9.0,15.0,56,0.00,,,0.00,209.000000,,2013-10-11 22:54:00,
2013-10-11 18:03:00,84.0,67.0,-100.00,SSE,160,9.0,15.0,56,0.00,,,0.00,209.000000,,2013-10-11 23:03:00,
2013-10-11 18:42:00,84.0,68.0,-100.00,SSE,161,8.0,16.0,58,0.00,,,0.00,106.000000,,2013-10-11 23:42:00,
2013-10-11 18:53:00,84.0,68.0,-100.00,SSE,161,8.0,16.0,58,0.00,,,0.00,106.000000,,2013-10-11 23:53:00,
2013-10-11 19:02:00,84.0,68.0,-100.00,SSE,161,8.0,16.0,58,0.00,,,0.00,106.000000,,2013-10-12 00:02:00,
2013-10-11 19:42:00,81.0,66.0,-100.00,SSE,150,7.0,13.0,61,0.00,,,0.00,35.000000,,2013-10-12 00:42:00,
2013-10-11 19:53:00,81.0,66.0,-100.00,SSE,150,7.0,13.0,61,0.00,,,0.00,35.000000,,2013-10-12 00:53:00,
2013-10-11 20:02:00,81.0,66.0,-100.00,SSE,150,7.0,13.0,61,0.00,,,0.00,35.000000,,2013-10-12 01:02:00,
2013-10-11 20:42:00,79.0,68.0,-100.00,SE,143,6.0,12.0,70,0.00,,,0.00,0.000000,,2013-10-12 01:42:00,
2013-10-11 20:52:00,79.0,68.0,-100.00,SE,143,6.0,12.0,70,0.00,,,0.00,0.000000,,2013-10-12 01:52:00,
2013-10-11 21:02:00,79.0,68.0,-100.00,SE,143,6.0,12.0,70,0.00,,,0.00,0.000000,,2013-10-12 02:02:00,
2013-10-11 21:42:00,79.0,68.0,-100.00,SE,145,8.0,13.0,70,0.00,,,0.00,0.000000,,2013-10-12 02:42:00,
2013-10-11 21:52:00,79.0,68.0,-100.00,SE,145,8.0,13.0,70,0.00,,,0.00,0.000000,,2013-10-12 02:52:00,
2013-10-11 22:02:00,79.0,68.0,-100.00,SE,145,8.0,13.0,70,0.00,,,0.00,0.000000,,2013-10-12 03:02:00,
2013-10-11 22:44:00,79.0,69.0,-100.00,SSE,149,8.0,15.0,71,0.00,,,0.00,0.000000,,2013-10-12 03:44:00,
2013-10-11 22:54:00,79.0,69.0,-100.00,SSE,149,8.0,15.0,71,0.00,,,0.00,0.000000,,2013-10-12 03:54:00,
2013-10-11 23:04:00,79.0,69.0,-100.00,SSE,149,8.0,15.0,71,0.00,,,0.00,0.000000,,2013-10-12 04:04:00,
2013-10-11 23:44:00,78.0,68.0,-100.00,SSE,157,10.0,18.0,72,0.00,,,0.00,0.000000,,2013-10-12 04:44:00,
2013-10-11 23:54:00,78.0,68.0,-100.00,SSE,157,10.0,18.0,72,0.00,,,0.00,0.000000,,2013-10-12 04:54:00,